{"data":{"norad_id":55821,"intl_designator":"2023-029AB","name":"ONEWEB-0661","alt_names":[],"object_type":"PAYLOAD","status":"ACTIVE","operator":null,"country":"UK","launch_date":"2023-03-09","launch_site_code":"AFETR","launch_vehicle":null,"mission":null,"orbit_class":"UNKNOWN","rcs_meters":null,"size_class":null,"mass_kg":null,"dimensions":null,"purposes":["comms"],"wikipedia_slug":null,"has_3d_model":false,"image_url":null,"decayed_at":null,"tle_current":{"epoch":"2026-09-20T00:05:22.305696Z","epoch_age_seconds":61250,"freshness":"FRESH","line1":"1 55821U 23029AB  26263.00373039  .00000196  00000+0  49497-3 0  9992","line2":"2 55821  87.8888 270.8231 0002125  86.6492 273.4881 13.14502157171841","mean_motion":13.14502157,"eccentricity":0.0002125,"inclination_deg":87.8888,"raan_deg":270.8231,"arg_perigee_deg":86.6492,"mean_anomaly_deg":273.4881,"bstar":0.00049497,"rev_number":17184,"period_min":109.54717665024,"perigee_km":1204.1812427174,"apogee_km":1207.4044128942,"semimajor_km":7583.9298278058,"source":"CELESTRAK","updated_at":"2026-09-20T09:00:44.764193Z"}}}